This demonstration page uses our WeatherBlox Daily Observations layout. Learn more.

Left ArrowRight Arrow

36.17497, -115.13722

Hourly Observations for January 1, 2017

Temp ( °F °C ) Dew Point ( °F °C ) Humidity (%) Winds ( mph kmh ) Pressure ( in mb ) Visibility ( mi km ) Precip ( " mm )
12:53 am 00:53 Cloudy with Mist and Fog 47 8.3 45 7.2 93 93 WNW 5 7 29.86 1011 5 8 N/A
1:53 am 01:53 Clear with Mist and Fog 46 7.8 44 6.7 93 93 N N/A 29.85 1011 6 10 N/A
2:53 am 02:53 Clear with Mist and Fog 43 6.1 42 5.6 97 97 N N/A 29.85 1011 4 6 N/A
3:06 am 03:06 Clear with Mist and Fog 43 6 43 6 100 100 SW 3 6 29.83 1010 3 4 N/A
3:14 am 03:14 Clear with Mist and Fog 45 7 43 6 93 93 WSW 3 6 29.83 1010 5 8 N/A
3:53 am 03:53 Clear with Mist and Fog 42 5.6 40 4.4 92 92 NNW 3 6 29.84 1010 5 8 N/A
4:16 am 04:16 Mostly Cloudy with Mist and Fog 43 6 41 5 93 93 N 5 7 29.80 1009 2 3 N/A
4:30 am 04:30 Cloudy with Mist and Fog 43 6 41 5 93 93 N N/A 29.80 1009 4 6 N/A
4:49 am 04:49 Partly Cloudy with Mist and Fog 41 5 39 4 93 93 N N/A 29.80 1009 3 4 N/A
4:53 am 04:53 Partly Cloudy with Mist and Fog 41 5 40 4.4 96 96 S 3 6 29.84 1011 3 5 N/A
5:53 am 05:53 Mostly Clear 40 4.4 39 3.9 97 97 N N/A 29.84 1011 8 13 N/A
6:53 am 06:53 Sunny 39 3.9 38 3.3 96 96 WNW 6 9 29.84 1011 10 16 N/A
7:53 am 07:53 Sunny 41 5 39 4 93 93 NW 3 6 29.80 1009 10 16 N/A
8:53 am 08:53 Sunny 46 7.8 42 5.6 86 86 N N/A 29.84 1011 10 16 N/A
9:53 am 09:53 Sunny 49 9.4 42 5.6 77 77 N N/A 29.85 1011 10 16 N/A
10:53 am 10:53 Sunny 52 11.1 42 5.6 69 69 N N/A 29.83 1010 10 16 N/A
11:53 am 11:53 Sunny 53 11.7 41 5 64 64 S 5 7 29.80 1009 10 16 N/A
12:53 pm 12:53 Sunny 55 12.8 40 4.4 57 57 VRB 3 6 29.78 1008 10 16 N/A
1:53 pm 13:53 Sunny 56 13.3 40 4.4 55 55 SE 7 11 29.75 1008 10 16 N/A
2:53 pm 14:53 Sunny 56 13.3 41 5 57 57 SE 8 13 29.75 1008 10 16 N/A
3:53 pm 15:53 Cloudy 50 10 39 4 67 67 N N/A 29.88 1012 10 16 N/A
4:24 pm 16:24 Sunny 55 13 37 3 51 51 S 13 20 29.68 1005 10 16 N/A
4:53 pm 16:53 Clear 54 12.2 37 2.8 53 53 S 13 20 29.74 1007 10 16 N/A
5:53 pm 17:53 Clear 53 11.7 37 2.8 55 55 S 12 19 29.76 1008 10 16 N/A
6:53 pm 18:53 Clear 50 10 37 2.8 61 61 S 16 26 29.77 1008 10 16 N/A
7:53 pm 19:53 Clear 49 9.4 35 1.7 59 59 S 12 19 29.77 1008 10 16 N/A
8:53 pm 20:53 Clear 51 10.6 34 1.1 52 52 S 16 26 29.76 1008 10 16 N/A
9:53 pm 21:53 Clear 50 10 33 0.6 52 52 S 14 22 29.78 1008 10 16 N/A
10:53 pm 22:53 Clear 51 10.6 29 -1.7 43 43 SSW 22 35 29.77 1008 10 16 N/A
11:53 pm 23:53 Clear 50 10 29 -1.7 44 44 S 20 31 29.78 1008 10 16 N/A

Powered by AerisWeather